Flag for Norway Weather past 2 weeks in Drøbak, Norway

Now
43 °F

Sprinkles. Partly sunny.


Feels Like: 30 °F
Forecast: 23 / 40 °F
Wind: 46 mph from Southwest

Location: Oslo / Fornebu

Current Time: Jan 25, 2015 at 11:39:18 AM

Latest Report: Jan 25, 2015 at 10:50 AM


Visibility: 4 mi

Pressure: 29.80 "Hg

Humidity: 100%

Dew point: 43 °F

Location of DrøbakLocation

Historic Weather in Drøbak — Graph

°F

Drøbak temperature yesterday

Maximum temperature yesterday: 41 °F (at 12:20 AM)
Minimum temperature yesterday: 37 °F (at 8:20 AM)
Average temperature yesterday: 40 °F

Past Weeks' High & Low Weather Summary

 TemperatureHumidityPressure
High46 °F (Jan 12, 7:20 AM)100% (Jan 23, 5:50 PM)30.15 "Hg (Jan 23, 5:50 PM)
Low36 °F (Jan 13, 3:50 AM)42% (Jan 11, 3:50 PM)28.00 "Hg (Jan 10, 10:50 AM)
Average42 °F72%29.33 "Hg
* Reported Jan 10 10:20 AM — Jan 25 10:20 AM, Drøbak, Weather by CustomWeather, © 2014

Note: Actual official high and low records may vary slightly from our data, if they occured in-between our weather recording intervals... More about our weather records

Advertising

Drøbak weather history for previous 24 hours

 ConditionsComfort  
Time TempWeatherWind HumidityBarometerVisibility
10:20 AM
Jan 25
43 °FSprinkles. Partly sunny.43 mph93%29.80 "HgN/A
9:50 AM45 °FSprinkles. Partly sunny.41 mph87%29.83 "HgN/A
9:20 AM43 °FLight rain. Partly sunny.38 mph93%29.83 "HgN/A
8:50 AM43 °FPartly sunny.37 mph87%29.86 "HgN/A
8:20 AM43 °FLight rain. Passing clouds.33 mph87%29.86 "HgN/A
7:50 AM43 °FLight rain. Passing clouds.31 mph87%29.89 "HgN/A
7:20 AM41 °FSprinkles. Overcast.28 mph87%29.89 "HgN/A
6:50 AM43 °FSprinkles. Passing clouds.24 mph76%29.92 "HgN/A
6:20 AM43 °FSprinkles. Passing clouds.18 mph76%29.92 "HgN/A
5:50 AM43 °FPartly cloudy.24 mph76%29.92 "HgN/A
5:20 AM43 °FPassing clouds.15 mph66%29.92 "HgN/A
4:50 AM43 °FPassing clouds.13 mph57%29.95 "HgN/A
4:20 AM43 °FPartly cloudy.16 mph57%29.95 "HgN/A
3:50 AM43 °FPassing clouds.13 mph61%29.95 "HgN/A
3:20 AM43 °FPassing clouds.14 mph57%29.95 "HgN/A
2:50 AM43 °FPassing clouds.14 mph53%29.95 "HgN/A
2:20 AM43 °FPassing clouds.20 mph53%29.92 "HgN/A
1:50 AM43 °FPartly cloudy.21 mph61%29.92 "HgN/A
1:20 AM43 °FPassing clouds.20 mph57%29.92 "HgN/A
12:50 AM41 °FPassing clouds.22 mph66%29.92 "HgN/A
12:20 AM41 °FPassing clouds.25 mph61%29.89 "HgN/A
11:50 PM
Jan 24
41 °FPassing clouds.28 mph66%29.89 "HgN/A
10:50 PM39 °FPassing clouds.21 mph81%29.86 "HgN/A
10:20 PM39 °FSprinkles. Passing clouds.20 mph81%29.89 "HgN/A
9:50 PM41 °FPassing clouds.25 mph70%29.86 "HgN/A
9:20 PM41 °FPassing clouds.26 mph66%29.83 "HgN/A
8:50 PM41 °FPassing clouds.25 mph70%29.83 "HgN/A
8:20 PM37 °FLight rain. Partly cloudy.31 mph70%29.83 "HgN/A
7:50 PM41 °FPassing clouds.24 mph61%29.80 "HgN/A
7:20 PM41 °FPassing clouds.25 mph61%29.80 "HgN/A
6:50 PM41 °FPassing clouds.25 mph57%29.80 "HgN/A
6:20 PM41 °FPassing clouds.29 mph57%29.77 "HgN/A
5:50 PM41 °FPassing clouds.26 mph61%29.77 "HgN/A
5:20 PM41 °FPassing clouds.29 mph61%29.74 "HgN/A
4:50 PM39 °FSprinkles. Passing clouds.26 mph75%29.74 "HgN/A
4:20 PM39 °FPassing clouds.21 mph75%29.71 "HgN/A
3:50 PM39 °FLight rain. Passing clouds.26 mph70%29.68 "HgN/A
3:20 PM39 °FBroken clouds.24 mph75%29.68 "HgN/A
2:50 PM39 °FPartly sunny.29 mph70%29.65 "HgN/A
2:20 PM37 °FSprinkles. Partly sunny.37 mph81%29.65 "HgN/A
1:50 PM39 °FSprinkles. Passing clouds.28 mph75%29.62 "HgN/A
1:20 PM37 °FLight rain. Partly sunny.25 mph87%29.59 "Hg4 mi
12:50 PM41 °FPartly sunny.28 mph66%29.59 "HgN/A
12:20 PM39 °FBroken clouds.24 mph75%29.56 "HgN/A
11:50 AM37 °FSprinkles. Partly sunny.26 mph87%29.56 "HgN/A
11:20 AM37 °FSprinkles. Overcast.31 mph87%29.53 "HgN/A
Weather by CustomWeather, © 2014

See weather overviewHow to use our weather pages